Погода в Шарлове

Россия / Ульяновская область     53°57′51″N   46°50′56″E
темп.,
°C
ветер,
м/с
пор.,
м/с
влажн.,
%
обл.,
%
осадки,
мм/ч
давл.,
гПа
погр.,
м
27 октября, ср
ср2701:00+1зюз51469100 0.0 1023454
04:00+1зюз51469100 0.0 1023471
07:00+1зюз51467100 0.0 1021461
10:00+3зюз51559100 0.0 1021489
13:00+6зюз61449100 0.0 1020660
16:00+6юз71549100 0.0 1018820
19:00+5юз6164898 0.0 1018790
22:00+4зюз6154782 0.0 1017814
28 октября, чт
чт2801:00+3зюз61556100 0.0 1015833
04:00+4зюз61370100 0.1 1015867
07:00+5зюз51180100 0.0 1015777
10:00+5зюз41080100 0.0 1016632
13:00+7зюз5867100 0.0 1015935
16:00+7юз4972100 0.0 1014740
19:00+6юз51080100 0.1 1014876
22:00+6зюз4992100 1.2 10131052
29 октября, пт
пт2901:00+6сз4792100 0.4 1015870
04:00+5с5989100 0.6 1018723
07:00+4с4889100 0.1 1022616
10:00+3ссв457835 0.1 1026532
13:00+4с23585 0.0 1028671
16:00+4с125155 0.0 1029603
19:00+1ююв1164100 0.0 103110
22:00+1юз2572100 0.0 1031104
30 октября, сб
сб3001:00+2юз41178100 0.0 1030337
04:00+3зюз514846 0.0 1030439
07:00+3зюз515835 0.0 1030431
10:00+5зюз5147470 0.0 1030431
13:00+9зюз613625 0.0 1030570
16:00+9зюз51364100 0.0 1029598
19:00+7зюз5137277 0.0 1030435
22:00+6з413775 0.0 1031361
31 октября, вс
вс3101:00+5з412805 0.0 1031309
04:00+4з311825 0.0 1032268
07:00+3зюз311865 0.0 1032228
10:00+6зюз410755 0.0 1032282
13:00+10зюз48563 0.0 1031473
16:00+9зюз410600 0.0 1030492
19:00+6зюз411755 0.0 1030318
22:00+5зюз311805 0.0 1031254